Location: Unspecified
(49.2170°N, 0.0000°E)
Time: 03:41:26
(UTC+00:00)

A-11 Canister half - Pass Details

Date: 26 June 2021
Orbit: 1513 x 1687 km, 47.2° (Epoch: 03 August)

Event Time Altitude Azimuth Distance (km) Brightness Sun altitude
Exits shadow 00:51:31 14° 160° (SSE) 3,589 10.4 -16.6°
Maximum altitude 00:56:06 20° 128° (SE) 3,206 10.4 -16.5°
Drops below altitude 10° 01:02:36 10° 87° (E) 3,897 11.3 -16.2°
Sets 01:06:49 0° 72° (ENE) 4,861 12.1 -16.0°
